Orbital Elements at Epoch 2459200.5 (2020-Dec-17.0) TDB
Reference: JPL 34 (heliocentric ecliptic J2000)
Element | Value | Uncertainty (1-sigma) | Units |
e | .101201329603111 | 3.315e-08 | |
a | 3.159282259780569 | 1.5693e-08 | au |
q | 2.839558694499254 | 1.0954e-07 | au |
i | 1.784022970131331 | 3.2006e-06 | deg |
node | 93.27239474272595 | 0.00014338 | deg |
peri | 49.33985047676159 | 0.00014494 | deg |
M | 275.0740456493897 | 2.2099e-05 | deg |
tp | 2459684.359202452843 (2022-Apr-14.85920245) | 0.00012719 | TDB |
period | 2051.07277527782 5.62 | 1.5283e-05 4.184e-08 | d yr |
n | .175517906697015 | 1.3078e-09 | deg/d |
Q | 3.479005825061884 | 1.7282e-08 | au |
|
| | Orbit Determination Parameters
Additional Information
|